This demonstration page uses our WeatherBlox Daily Observations layout. Learn more.

Left ArrowRight Arrow

Hourly Observations for April 9, 2016

Temp ( °F °C ) Dew Point ( °F °C ) Humidity (%) Winds ( mph kmh ) Pressure ( in mb ) Visibility ( mi km ) Precip ( " mm )
12:53 am 00:53 Clear 68 20 55 12.8 63 63 S 8 13 29.81 1010 10 16 0.00 0.00
1:53 am 01:53 Cloudy 67 19.4 55 12.8 66 66 SW 9 15 29.81 1010 10 16 0.00 0.00
2:53 am 02:53 Cloudy 66 18.9 54 12.2 65 65 SW 8 13 29.80 1009 10 16 0.00 0.00
3:53 am 03:53 Cloudy 65 18.3 54 12.2 68 68 S 6 9 29.82 1010 10 16 0.00 0.00
4:53 am 04:53 Cloudy 63 17.2 55 12.8 76 76 SSE 7 11 29.82 1010 10 16 0.00 0.00
5:53 am 05:53 Cloudy 62 16.7 54 12.2 75 75 S 8 13 29.83 1010 10 16 0.00 0.00
6:53 am 06:53 Cloudy 61 16.1 55 12.8 81 81 SSE 7 11 29.84 1011 10 16 0.00 0.00
7:53 am 07:53 Mostly Cloudy 62 16.7 55 12.8 78 78 S 6 9 29.85 1011 10 16 0.00 0.00
8:24 am 08:24 Cloudy 63 17 55 13 77 77 SW 3 6 29.85 1011 10 16 0.00 0.00
8:53 am 08:53 Cloudy 63 17.2 55 12.8 76 76 Calm 29.85 1011 10 16 0.00 0.00
9:53 am 09:53 Cloudy 63 17.2 55 12.8 76 76 S 3 6 29.85 1011 10 16 0.00 0.00
10:53 am 10:53 Cloudy 63 17.2 55 12.8 76 76 S 7 11 29.86 1011 10 16 0.00 0.00
11:53 am 11:53 Cloudy 63 17.2 55 12.8 76 76 S 8 13 29.87 1012 10 16 0.00 0.00
12:53 pm 12:53 Cloudy 63 17.2 55 12.8 76 76 S 9 15 29.86 1011 10 16 0.00 0.00
1:53 pm 13:53 Cloudy 64 17.8 55 12.8 73 73 S 9 15 29.85 1011 10 16 0.00 0.00
2:53 pm 14:53 Cloudy 64 17.8 55 12.8 73 73 S 14 22 29.84 1011 10 16 0.00 0.00
3:53 pm 15:53 Cloudy 64 17.8 55 12.8 73 73 S 12 19 29.83 1010 10 16 0.00 0.00
4:53 pm 16:53 Cloudy 62 16.7 55 12.8 78 78 S 12 19 29.82 1010 10 16 0.00 0.00
5:53 pm 17:53 Cloudy 62 16.7 55 12.8 78 78 S 10 17 29.82 1010 10 16 0.00 0.00
6:53 pm 18:53 Cloudy 62 16.7 55 12.8 78 78 S 10 17 29.81 1010 10 16 0.00 0.00
7:35 pm 19:35 Cloudy 61 16.1 55 12.8 81 81 SSW 9 15 29.83 1010 10 16 0.00 0.00
7:53 pm 19:53 Cloudy 61 16.1 55 12.8 81 81 S 8 13 29.81 1010 10 16 0.00 0.00
8:53 pm 20:53 Cloudy 60 15.6 55 12.8 84 84 S 7 11 29.83 1010 8 13 0.00 0.00
9:30 pm 21:30 Cloudy with Light Rain 59 15 55 13 88 88 E 3 6 29.85 1011 3 4 0.00 0.00
9:38 pm 21:38 Cloudy with Light Rain 59 15 55 13 88 88 E 3 6 29.85 1011 3 5 0.00 0.00
9:53 pm 21:53 Cloudy with Light Rain 59 15 56 13.3 90 90 Calm 29.86 1011 4 6 0.04 1.02
10:06 pm 22:06 Cloudy 59 15 55 13 88 88 Calm 29.88 1012 7 11 0.00 0.00
10:15 pm 22:15 Cloudy with Rain 59 15 56 13.3 90 90 Calm 29.88 1012 4 6 0.01 0.25
10:26 pm 22:26 Cloudy with Rain 59 15 55 13 88 88 SSW 5 7 29.85 1011 3 4 0.00 0.00
10:33 pm 22:33 Cloudy with Rain 59 15 56 13.3 90 90 SSW 6 9 29.85 1011 3 5 0.07 1.78
10:53 pm 22:53 Cloudy with Heavy Rain 58 14.4 56 13.3 93 93 Calm 29.86 1011 3 5 0.16 4.06
11:01 pm 23:01 Cloudy with Rain 58 14.4 56 13.3 93 93 SW 5 7 29.85 1011 3 5 0.03 0.76
11:18 pm 23:18 Cloudy 59 15 55 13 88 88 S 6 9 29.83 1010 10 16 0.00 0.00
11:53 pm 23:53 Cloudy with Light Rain 58 14.4 56 13.3 93 93 S 3 6 29.84 1010 10 16 0.04 1.02

Powered by AerisWeather